RYR4696 GCRR-LEAL

Flight info

Callsign RYR4696
Flight time 2h 14m
Altitude 36000
Route KORAL UG5 SONSO DCT NIRAL/N0447F380 UN871 OSDAM UM985 BARPA DCT XAVIR DCT PIMOS M445 ETURA T252 XEBAR M985 ASTRO
Aircraft B38M/M-SDE1FGHILORVWXY/HB1

Departure

Time 2026-04-27 16:30
Airport César Manrique-Lanzarote Airport (GCRR)

Arrival

Time 2026-04-27 18:44
Airport Alicante-Elche Miguel Hernández Airport (LEAL)
Time Latitude Longitude Altitude Speed Heading
2026-04-27 15:59 28.95034 -13.60535 52 ft 0 kts 294°
2026-04-27 16:24 28.95049 -13.60578 52 ft 10 kts 283°
2026-04-27 16:25 28.94898 -13.60645 51 ft 11 kts 120°
2026-04-27 16:25 28.94743 -13.60617 51 ft 19 kts 206°
2026-04-27 16:26 28.94437 -13.60793 34 ft 30 kts 206°
2026-04-27 16:26 28.94044 -13.61021 28 ft 33 kts 207°
2026-04-27 16:27 28.93710 -13.61214 28 ft 20 kts 205°
2026-04-27 16:27 28.93666 -13.61215 28 ft 0 kts 150°
2026-04-27 16:28 28.93630 -13.61052 27 ft 5 kts 25°
2026-04-27 16:28 28.93632 -13.61051 27 ft 0 kts 25°
2026-04-27 16:29 28.95193 -13.60136 163 ft 176 kts 25°
2026-04-27 16:30 28.97326 -13.58479 2098 ft 183 kts 36°
2026-04-27 16:30 28.99479 -13.56605 3358 ft 223 kts 34°
2026-04-27 16:31 29.03031 -13.52382 5869 ft 261 kts 48°
2026-04-27 16:31 29.05390 -13.49041 7601 ft 276 kts 50°
2026-04-27 16:32 29.07850 -13.45549 9402 ft 287 kts 51°
2026-04-27 16:32 29.09120 -13.43759 10247 ft 294 kts 49°
2026-04-27 16:33 29.12691 -13.41086 11248 ft 325 kts 22°
2026-04-27 16:33 29.14802 -13.40037 11766 ft 334 kts 23°
2026-04-27 16:33 29.16929 -13.38957 11930 ft 334 kts 23°
2026-04-27 16:33 29.19050 -13.37867 11993 ft 334 kts 23°
2026-04-27 16:34 29.21175 -13.36766 12400 ft 335 kts 23°
2026-04-27 16:34 29.23307 -13.35658 13255 ft 338 kts 23°
2026-04-27 16:34 29.25463 -13.34534 13979 ft 343 kts 24°
2026-04-27 16:34 29.27463 -13.33017 14663 ft 349 kts 44°
2026-04-27 16:35 29.28946 -13.30792 15338 ft 355 kts 54°
2026-04-27 16:35 29.30366 -13.28463 15971 ft 359 kts 53°
2026-04-27 16:35 29.33267 -13.23731 17283 ft 366 kts 54°
2026-04-27 16:36 29.34736 -13.21325 17905 ft 371 kts 54°
2026-04-27 16:36 29.36219 -13.18891 18490 ft 374 kts 54°
2026-04-27 16:36 29.37697 -13.16466 19026 ft 377 kts 54°
2026-04-27 16:36 29.39221 -13.13962 19587 ft 380 kts 54°
2026-04-27 16:37 29.40739 -13.11468 20115 ft 383 kts 54°
2026-04-27 16:37 29.42267 -13.08954 20658 ft 386 kts 54°
2026-04-27 16:37 29.43787 -13.06453 21173 ft 388 kts 55°
2026-04-27 16:37 29.45337 -13.03902 21686 ft 392 kts 55°
2026-04-27 16:38 29.46900 -13.01327 22216 ft 394 kts 55°
2026-04-27 16:38 29.48473 -12.98732 22746 ft 397 kts 55°
2026-04-27 16:38 29.50056 -12.96118 23276 ft 400 kts 55°
2026-04-27 16:38 29.51652 -12.93484 23721 ft 404 kts 55°
2026-04-27 16:39 29.53262 -12.90824 24158 ft 407 kts 55°
2026-04-27 16:39 29.54878 -12.88150 24608 ft 409 kts 55°
2026-04-27 16:39 29.56504 -12.85461 25029 ft 412 kts 55°
2026-04-27 16:39 29.58142 -12.82748 25445 ft 415 kts 54°
2026-04-27 16:40 29.59790 -12.80018 25868 ft 417 kts 54°
2026-04-27 16:40 29.61448 -12.77269 26274 ft 420 kts 54°
2026-04-27 16:40 29.63115 -12.74502 26662 ft 423 kts 54°
2026-04-27 16:40 29.64793 -12.71716 27051 ft 426 kts 54°
2026-04-27 16:41 29.66485 -12.68906 27441 ft 428 kts 54°
2026-04-27 16:41 29.68182 -12.66084 27820 ft 431 kts 54°
2026-04-27 16:41 29.69892 -12.63240 28182 ft 434 kts 54°
2026-04-27 16:41 29.71613 -12.60374 28546 ft 436 kts 54°
2026-04-27 16:42 29.73341 -12.57494 28908 ft 439 kts 54°
2026-04-27 16:42 29.75069 -12.54578 29258 ft 442 kts 55°
2026-04-27 16:42 29.76805 -12.51645 29616 ft 444 kts 55°
2026-04-27 16:42 29.78526 -12.48736 29960 ft 447 kts 55°
2026-04-27 16:43 29.80278 -12.45773 30246 ft 450 kts 55°
2026-04-27 16:43 29.82043 -12.42786 30528 ft 452 kts 55°
2026-04-27 16:43 29.83817 -12.39783 30812 ft 454 kts 55°
2026-04-27 16:43 29.85599 -12.36764 31074 ft 457 kts 55°
2026-04-27 16:44 29.87390 -12.33726 31345 ft 460 kts 55°
2026-04-27 16:44 29.89189 -12.30672 31621 ft 462 kts 55°
2026-04-27 16:44 29.90996 -12.27604 31888 ft 464 kts 55°
2026-04-27 16:44 29.92814 -12.24513 32141 ft 467 kts 56°
2026-04-27 16:45 29.94638 -12.21412 32407 ft 469 kts 56°
2026-04-27 16:45 29.96473 -12.18287 32676 ft 471 kts 56°
2026-04-27 16:45 29.98314 -12.15151 32929 ft 473 kts 56°
2026-04-27 16:45 30.00163 -12.11998 33195 ft 475 kts 56°
2026-04-27 16:46 30.02179 -12.08988 33519 ft 474 kts 44°
2026-04-27 16:46 30.04613 -12.06432 33896 ft 473 kts 42°
2026-04-27 16:46 30.06983 -12.03790 34143 ft 474 kts 44°
2026-04-27 16:46 30.09345 -12.01124 34413 ft 475 kts 43°
2026-04-27 16:47 30.11715 -11.98466 34692 ft 475 kts 43°
2026-04-27 16:47 30.14085 -11.95810 34967 ft 475 kts 43°
2026-04-27 16:47 30.16458 -11.93150 35231 ft 475 kts 43°
2026-04-27 16:47 30.18829 -11.90491 35476 ft 475 kts 43°
2026-04-27 16:48 30.21172 -11.87861 35725 ft 476 kts 43°
2026-04-27 16:48 30.23576 -11.85161 35940 ft 476 kts 43°
2026-04-27 16:48 30.25921 -11.82525 35975 ft 477 kts 43°
2026-04-27 16:49 30.33032 -11.74521 35959 ft 475 kts 43°
2026-04-27 16:49 30.37767 -11.69182 35951 ft 475 kts 43°
2026-04-27 16:50 30.42503 -11.63835 35954 ft 475 kts 43°
2026-04-27 16:50 30.47236 -11.58481 35949 ft 476 kts 43°
2026-04-27 16:51 30.51968 -11.53123 35946 ft 476 kts 44°
2026-04-27 16:51 30.56702 -11.47755 35946 ft 476 kts 44°
2026-04-27 16:52 30.61431 -11.42384 35944 ft 476 kts 44°
2026-04-27 16:52 30.66161 -11.37004 35940 ft 476 kts 44°
2026-04-27 16:53 30.70857 -11.31656 35940 ft 476 kts 44°
2026-04-27 16:53 30.75581 -11.26266 35938 ft 476 kts 44°
2026-04-27 16:54 30.80302 -11.20874 35935 ft 476 kts 44°
2026-04-27 16:54 30.85021 -11.15476 35937 ft 476 kts 44°
2026-04-27 16:55 30.89743 -11.10066 35938 ft 476 kts 44°
2026-04-27 16:55 30.94457 -11.04658 35931 ft 476 kts 44°
2026-04-27 16:56 30.99172 -10.99241 35933 ft 476 kts 44°
2026-04-27 16:56 31.03883 -10.93820 35930 ft 476 kts 44°
2026-04-27 16:57 31.08593 -10.88391 35924 ft 476 kts 44°
2026-04-27 16:57 31.13305 -10.82954 35920 ft 476 kts 44°
2026-04-27 16:58 31.17217 -10.78432 35921 ft 476 kts 44°
2026-04-27 16:58 31.22688 -10.72101 35919 ft 476 kts 44°
2026-04-27 16:59 31.26629 -10.67534 35919 ft 476 kts 44°
2026-04-27 16:59 31.31328 -10.62079 35914 ft 476 kts 44°
2026-04-27 17:00 31.38345 -10.53920 35908 ft 476 kts 44°
2026-04-27 17:01 31.43038 -10.48453 35914 ft 476 kts 44°
2026-04-27 17:01 31.47729 -10.42979 35912 ft 476 kts 44°
2026-04-27 17:02 31.52417 -10.37502 35910 ft 476 kts 44°
2026-04-27 17:02 31.57098 -10.32025 35906 ft 475 kts 44°
2026-04-27 17:03 31.61776 -10.26542 35908 ft 475 kts 44°
2026-04-27 17:03 31.66450 -10.21056 35895 ft 475 kts 44°
2026-04-27 17:04 31.71119 -10.15567 35906 ft 475 kts 44°
2026-04-27 17:04 31.75785 -10.10074 35913 ft 475 kts 44°
2026-04-27 17:05 31.80442 -10.04583 35900 ft 474 kts 44°
2026-04-27 17:05 31.85089 -9.99096 35904 ft 473 kts 44°
2026-04-27 17:06 31.89696 -9.93647 35897 ft 472 kts 44°
2026-04-27 17:06 31.94354 -9.88130 35905 ft 472 kts 44°
2026-04-27 17:07 31.98941 -9.82688 35904 ft 471 kts 44°
2026-04-27 17:07 32.03549 -9.77215 35907 ft 470 kts 44°
2026-04-27 17:08 32.08151 -9.71739 35897 ft 469 kts 44°
2026-04-27 17:08 32.12741 -9.66269 35901 ft 469 kts 45°
2026-04-27 17:09 32.17326 -9.60797 35901 ft 468 kts 45°
2026-04-27 17:09 32.21899 -9.55330 35899 ft 468 kts 45°
2026-04-27 17:10 32.26470 -9.49860 35897 ft 467 kts 45°
2026-04-27 17:10 32.31069 -9.44442 35897 ft 467 kts 39°
2026-04-27 17:11 32.36166 -9.39714 35897 ft 466 kts 38°
2026-04-27 17:11 32.43662 -9.32394 35894 ft 465 kts 39°
2026-04-27 17:12 32.51140 -9.25057 35895 ft 465 kts 39°
2026-04-27 17:13 32.56120 -9.20164 35885 ft 465 kts 39°
2026-04-27 17:13 32.61090 -9.15271 35887 ft 464 kts 39°
2026-04-27 17:14 32.66058 -9.10374 35883 ft 464 kts 39°
2026-04-27 17:14 32.71022 -9.05474 35880 ft 464 kts 39°
2026-04-27 17:15 32.75979 -9.00573 35874 ft 464 kts 39°
2026-04-27 17:15 32.80936 -8.95664 35876 ft 464 kts 39°
2026-04-27 17:16 32.85884 -8.90757 35872 ft 463 kts 39°
2026-04-27 17:16 32.90833 -8.85843 35869 ft 463 kts 40°
2026-04-27 17:17 32.95777 -8.80925 35866 ft 463 kts 40°
2026-04-27 17:17 33.00677 -8.76043 35866 ft 462 kts 40°
2026-04-27 17:18 33.08072 -8.68663 35856 ft 462 kts 40°
2026-04-27 17:18 33.13002 -8.63733 35856 ft 462 kts 40°
2026-04-27 17:19 33.17926 -8.58803 35850 ft 462 kts 40°
2026-04-27 17:19 33.22840 -8.53874 35849 ft 461 kts 40°
2026-04-27 17:20 33.27752 -8.48939 35845 ft 461 kts 40°
2026-04-27 17:20 33.32655 -8.44007 35845 ft 460 kts 40°
2026-04-27 17:21 33.37550 -8.39076 35841 ft 460 kts 40°
2026-04-27 17:21 33.42439 -8.34142 35843 ft 459 kts 40°
2026-04-27 17:22 33.47321 -8.29208 35840 ft 459 kts 40°
2026-04-27 17:22 33.52199 -8.24270 35837 ft 459 kts 41°
2026-04-27 17:23 33.57074 -8.19329 35836 ft 459 kts 41°
2026-04-27 17:23 33.61944 -8.14385 35837 ft 458 kts 41°
2026-04-27 17:24 33.66804 -8.09442 35834 ft 458 kts 41°
2026-04-27 17:24 33.71662 -8.04495 35836 ft 458 kts 41°
2026-04-27 17:25 33.76516 -7.99544 35833 ft 458 kts 41°
2026-04-27 17:25 33.81368 -7.94588 35836 ft 458 kts 41°
2026-04-27 17:26 33.86216 -7.89627 35833 ft 458 kts 41°
2026-04-27 17:26 33.91067 -7.84657 35833 ft 458 kts 41°
2026-04-27 17:27 33.95913 -7.79683 35831 ft 458 kts 41°
2026-04-27 17:27 34.00760 -7.74701 35831 ft 458 kts 41°
2026-04-27 17:28 34.05608 -7.69710 35833 ft 458 kts 41°
2026-04-27 17:29 34.12878 -7.62212 35830 ft 458 kts 41°
2026-04-27 17:29 34.17729 -7.57200 35865 ft 461 kts 42°
2026-04-27 17:30 34.22610 -7.52146 35823 ft 462 kts 42°
2026-04-27 17:30 34.29941 -7.44542 35824 ft 463 kts 42°
2026-04-27 17:31 34.34826 -7.39465 35824 ft 463 kts 42°
2026-04-27 17:31 34.39682 -7.34410 35821 ft 463 kts 42°
2026-04-27 17:32 34.47010 -7.26767 35831 ft 463 kts 42°
2026-04-27 17:33 34.51926 -7.21629 35824 ft 464 kts 42°
2026-04-27 17:33 34.56807 -7.16519 35824 ft 464 kts 42°
2026-04-27 17:34 34.61658 -7.11434 35823 ft 464 kts 42°
2026-04-27 17:34 34.66536 -7.06311 35821 ft 464 kts 42°
2026-04-27 17:35 34.71418 -7.01176 35816 ft 464 kts 42°
2026-04-27 17:35 34.76293 -6.96040 35819 ft 464 kts 42°
2026-04-27 17:36 34.81164 -6.90900 35817 ft 464 kts 42°
2026-04-27 17:36 34.86034 -6.85752 35815 ft 464 kts 42°
2026-04-27 17:37 34.90902 -6.80599 35811 ft 464 kts 42°
2026-04-27 17:37 34.95773 -6.75433 35814 ft 464 kts 42°
2026-04-27 17:38 35.00643 -6.70260 35816 ft 464 kts 42°
2026-04-27 17:38 35.05503 -6.65089 35815 ft 464 kts 42°
2026-04-27 17:39 35.10368 -6.59905 35813 ft 464 kts 43°
2026-04-27 17:39 35.15224 -6.54721 35813 ft 464 kts 43°
2026-04-27 17:40 35.20082 -6.49527 35815 ft 464 kts 43°
2026-04-27 17:40 35.24934 -6.44331 35815 ft 464 kts 43°
2026-04-27 17:41 35.29791 -6.39120 35819 ft 464 kts 43°
2026-04-27 17:41 35.34641 -6.33908 35818 ft 464 kts 43°
2026-04-27 17:42 35.39494 -6.28686 35818 ft 464 kts 43°
2026-04-27 17:42 35.44343 -6.23457 35824 ft 465 kts 43°
2026-04-27 17:43 35.48382 -6.19097 35830 ft 466 kts 43°
2026-04-27 17:43 35.54039 -6.12980 35845 ft 467 kts 43°
2026-04-27 17:44 35.58916 -6.07695 35853 ft 468 kts 43°
2026-04-27 17:44 35.63800 -6.02394 35860 ft 469 kts 43°
2026-04-27 17:45 35.68689 -5.97078 35855 ft 469 kts 43°
2026-04-27 17:45 35.72707 -5.92578 35853 ft 470 kts 47°
2026-04-27 17:46 35.76627 -5.86219 35842 ft 465 kts 66°
2026-04-27 17:46 35.78733 -5.78781 35850 ft 461 kts 76°
2026-04-27 17:46 35.79881 -5.75086 35853 ft 464 kts 65°
2026-04-27 17:47 35.81405 -5.71570 35879 ft 465 kts 66°
2026-04-27 17:47 35.84265 -5.64415 35897 ft 466 kts 65°
2026-04-27 17:48 35.87163 -5.57270 35969 ft 466 kts 66°
2026-04-27 17:48 35.90049 -5.50121 35985 ft 466 kts 66°
2026-04-27 17:49 35.92931 -5.42966 35989 ft 465 kts 66°
2026-04-27 17:49 35.95802 -5.35820 35994 ft 464 kts 66°
2026-04-27 17:50 35.98663 -5.28686 35988 ft 463 kts 65°
2026-04-27 17:50 36.03062 -5.18068 35992 ft 462 kts 64°
2026-04-27 17:51 36.06016 -5.11008 35993 ft 463 kts 64°
2026-04-27 17:51 36.08945 -5.03987 35998 ft 463 kts 64°
2026-04-27 17:52 36.11891 -4.96910 35995 ft 463 kts 64°
2026-04-27 17:52 36.14889 -4.89868 35990 ft 464 kts 58°
2026-04-27 17:53 36.16969 -4.86827 36007 ft 464 kts 44°
2026-04-27 17:53 36.19268 -4.84010 35999 ft 466 kts 47°
2026-04-27 17:53 36.23714 -4.78176 36009 ft 466 kts 47°
2026-04-27 17:54 36.28193 -4.72377 36003 ft 466 kts 47°
2026-04-27 17:54 36.32670 -4.66582 36002 ft 466 kts 47°
2026-04-27 17:55 36.37151 -4.60773 36013 ft 466 kts 47°
2026-04-27 17:55 36.41620 -4.54968 36020 ft 465 kts 47°
2026-04-27 17:56 36.46091 -4.49150 36019 ft 465 kts 47°
2026-04-27 17:56 36.50555 -4.43331 36020 ft 465 kts 47°
2026-04-27 17:57 36.55014 -4.37509 36022 ft 465 kts 47°
2026-04-27 17:57 36.59471 -4.31678 36014 ft 465 kts 47°
2026-04-27 17:58 36.63897 -4.25877 36017 ft 465 kts 47°
2026-04-27 17:58 36.68353 -4.20028 36018 ft 465 kts 47°
2026-04-27 17:59 36.72805 -4.14172 36015 ft 465 kts 47°
2026-04-27 17:59 36.77253 -4.08311 36011 ft 465 kts 47°
2026-04-27 18:00 36.81698 -4.02443 35996 ft 465 kts 47°
2026-04-27 18:00 36.86143 -3.96565 36010 ft 466 kts 47°
2026-04-27 18:01 36.90585 -3.90681 35982 ft 465 kts 47°
2026-04-27 18:01 36.95025 -3.84788 35991 ft 466 kts 47°
2026-04-27 18:02 36.99464 -3.78886 35979 ft 466 kts 47°
2026-04-27 18:02 37.03902 -3.72976 35973 ft 466 kts 46°
2026-04-27 18:03 37.08340 -3.67056 35970 ft 466 kts 47°
2026-04-27 18:03 37.12808 -3.61183 35972 ft 466 kts 46°
2026-04-27 18:04 37.17291 -3.55378 35977 ft 466 kts 45°
2026-04-27 18:04 37.21807 -3.49544 35972 ft 466 kts 45°
2026-04-27 18:05 37.26320 -3.43703 35973 ft 466 kts 46°
2026-04-27 18:05 37.30829 -3.37853 35990 ft 466 kts 46°
2026-04-27 18:06 37.35333 -3.32000 35974 ft 466 kts 46°
2026-04-27 18:06 37.39831 -3.26143 35978 ft 465 kts 46°
2026-04-27 18:07 37.44324 -3.20283 35980 ft 465 kts 46°
2026-04-27 18:07 37.48814 -3.14416 35976 ft 465 kts 46°
2026-04-27 18:08 37.53296 -3.08548 35988 ft 465 kts 46°
2026-04-27 18:08 37.57774 -3.02677 35984 ft 465 kts 46°
2026-04-27 18:09 37.62218 -2.96838 35978 ft 465 kts 46°
2026-04-27 18:09 37.66693 -2.90950 35994 ft 465 kts 46°
2026-04-27 18:10 37.71163 -2.85056 36000 ft 464 kts 46°
2026-04-27 18:10 37.75627 -2.79160 36012 ft 464 kts 46°
2026-04-27 18:11 37.80083 -2.73264 36017 ft 464 kts 46°
2026-04-27 18:11 37.84534 -2.67363 36027 ft 463 kts 46°
2026-04-27 18:12 37.88977 -2.61460 36026 ft 463 kts 46°
2026-04-27 18:12 37.93413 -2.55558 36026 ft 462 kts 46°
2026-04-27 18:13 37.97841 -2.49654 36035 ft 462 kts 46°
2026-04-27 18:13 38.02261 -2.43751 36040 ft 461 kts 46°
2026-04-27 18:14 38.06675 -2.37843 36045 ft 461 kts 46°
2026-04-27 18:14 38.11085 -2.31931 36041 ft 461 kts 46°
2026-04-27 18:15 38.15464 -2.26050 36032 ft 459 kts 46°
2026-04-27 18:15 38.17626 -2.23142 35709 ft 450 kts 46°
2026-04-27 18:15 38.19874 -2.20374 35050 ft 451 kts 36°
2026-04-27 18:16 38.22607 -2.18457 34374 ft 450 kts 17°
2026-04-27 18:16 38.25618 -2.17490 33922 ft 444 kts 11°
2026-04-27 18:16 38.28603 -2.16557 33437 ft 440 kts 13°
2026-04-27 18:16 38.31556 -2.15611 32932 ft 436 kts 13°
2026-04-27 18:17 38.34498 -2.14690 32429 ft 433 kts 12°
2026-04-27 18:17 38.37412 -2.13791 31962 ft 430 kts 12°
2026-04-27 18:17 38.40313 -2.12901 31478 ft 427 kts 12°
2026-04-27 18:17 38.43192 -2.12018 31004 ft 424 kts 12°
2026-04-27 18:18 38.46052 -2.11140 30546 ft 422 kts 12°
2026-04-27 18:18 38.48896 -2.10263 30078 ft 419 kts 13°
2026-04-27 18:18 38.51612 -2.08981 29448 ft 415 kts 30°
2026-04-27 18:18 38.53769 -2.06638 28967 ft 404 kts 50°
2026-04-27 18:19 38.55416 -2.03793 28509 ft 393 kts 53°
2026-04-27 18:19 38.57057 -2.01130 28126 ft 382 kts 50°
2026-04-27 18:19 38.58708 -1.98488 27743 ft 379 kts 51°
2026-04-27 18:19 38.60335 -1.95855 27349 ft 377 kts 51°
2026-04-27 18:20 38.61950 -1.93226 26959 ft 375 kts 51°
2026-04-27 18:20 38.63551 -1.90608 26581 ft 373 kts 51°
2026-04-27 18:20 38.65142 -1.88005 26206 ft 371 kts 51°
2026-04-27 18:20 38.66726 -1.85410 25834 ft 369 kts 51°
2026-04-27 18:21 38.68300 -1.82828 25465 ft 367 kts 51°
2026-04-27 18:21 38.69865 -1.80259 25096 ft 365 kts 51°
2026-04-27 18:21 38.71425 -1.77698 24733 ft 364 kts 52°
2026-04-27 18:21 38.72983 -1.75136 24315 ft 365 kts 52°
2026-04-27 18:22 38.74537 -1.72577 23965 ft 363 kts 52°
2026-04-27 18:22 38.76081 -1.70034 23616 ft 361 kts 52°
2026-04-27 18:22 38.77620 -1.67497 23202 ft 360 kts 52°
2026-04-27 18:22 38.79150 -1.64972 22823 ft 358 kts 52°
2026-04-27 18:23 38.80669 -1.62465 22469 ft 355 kts 52°
2026-04-27 18:23 38.82177 -1.59973 22113 ft 352 kts 52°
2026-04-27 18:23 38.83672 -1.57501 21759 ft 349 kts 52°
2026-04-27 18:23 38.85134 -1.55079 21414 ft 347 kts 52°
2026-04-27 18:24 38.86608 -1.52639 21071 ft 345 kts 52°
2026-04-27 18:24 38.88072 -1.50212 20729 ft 343 kts 52°
2026-04-27 18:24 38.89526 -1.47801 20388 ft 341 kts 52°
2026-04-27 18:24 38.90969 -1.45406 20058 ft 338 kts 52°
2026-04-27 18:25 38.92405 -1.43021 19731 ft 336 kts 52°
2026-04-27 18:25 38.93831 -1.40650 19398 ft 335 kts 52°
2026-04-27 18:25 38.95249 -1.38291 19065 ft 333 kts 52°
2026-04-27 18:25 38.96661 -1.35940 18735 ft 332 kts 53°
2026-04-27 18:26 38.98064 -1.33600 18403 ft 330 kts 54°
2026-04-27 18:26 38.99186 -1.31041 17961 ft 329 kts 73°
2026-04-27 18:26 38.99530 -1.28184 17627 ft 321 kts 95°
2026-04-27 18:26 38.99085 -1.25420 17315 ft 314 kts 115°
2026-04-27 18:27 38.97975 -1.23052 16986 ft 307 kts 133°
2026-04-27 18:27 38.96433 -1.21189 16670 ft 303 kts 142°
2026-04-27 18:27 38.94806 -1.19487 16342 ft 301 kts 143°
2026-04-27 18:27 38.93159 -1.17850 16024 ft 298 kts 144°
2026-04-27 18:28 38.91527 -1.16278 15722 ft 296 kts 145°
2026-04-27 18:28 38.89871 -1.14707 15406 ft 298 kts 145°
2026-04-27 18:28 38.88187 -1.13126 15095 ft 302 kts 146°
2026-04-27 18:28 38.86481 -1.11539 14780 ft 304 kts 146°
2026-04-27 18:29 38.84768 -1.09953 14473 ft 303 kts 146°
2026-04-27 18:29 38.83065 -1.08379 14157 ft 301 kts 146°
2026-04-27 18:29 38.81371 -1.06817 13837 ft 299 kts 146°
2026-04-27 18:29 38.79682 -1.05261 13484 ft 298 kts 146°
2026-04-27 18:30 38.78008 -1.03718 13157 ft 296 kts 146°
2026-04-27 18:30 38.76343 -1.02184 12839 ft 293 kts 146°
2026-04-27 18:30 38.74692 -1.00666 12532 ft 291 kts 146°
2026-04-27 18:30 38.73053 -0.99159 12207 ft 290 kts 145°
2026-04-27 18:31 38.71419 -0.97659 11889 ft 288 kts 145°
2026-04-27 18:31 38.69797 -0.96170 11606 ft 285 kts 146°
2026-04-27 18:31 38.68212 -0.94716 11324 ft 283 kts 145°
2026-04-27 18:31 38.66620 -0.93255 11034 ft 281 kts 145°
2026-04-27 18:32 38.65039 -0.91805 10742 ft 279 kts 145°
2026-04-27 18:32 38.63465 -0.90363 10451 ft 278 kts 145°
2026-04-27 18:32 38.61899 -0.88930 10194 ft 275 kts 144°
2026-04-27 18:32 38.60367 -0.87528 10059 ft 267 kts 145°
2026-04-27 18:33 38.58882 -0.86169 9916 ft 259 kts 144°
2026-04-27 18:33 38.57446 -0.84857 9780 ft 251 kts 144°
2026-04-27 18:33 38.55988 -0.83684 9551 ft 245 kts 160°
2026-04-27 18:33 38.54533 -0.83431 9285 ft 243 kts 186°
2026-04-27 18:34 38.52931 -0.84027 9022 ft 240 kts 207°
2026-04-27 18:34 38.51613 -0.85357 8757 ft 247 kts 230°
2026-04-27 18:34 38.50530 -0.87084 8497 ft 252 kts 226°
2026-04-27 18:34 38.49266 -0.88648 8206 ft 254 kts 220°
2026-04-27 18:35 38.47905 -0.90099 7925 ft 256 kts 217°
2026-04-27 18:35 38.46485 -0.91471 7611 ft 255 kts 214°
2026-04-27 18:35 38.45021 -0.92746 7318 ft 255 kts 211°
2026-04-27 18:35 38.43512 -0.93920 7026 ft 254 kts 208°
2026-04-27 18:36 38.41959 -0.94991 6715 ft 254 kts 205°
2026-04-27 18:36 38.40364 -0.95957 6405 ft 254 kts 202°
2026-04-27 18:36 38.38756 -0.96796 6084 ft 246 kts 197°
2026-04-27 18:36 38.37112 -0.97238 5744 ft 238 kts 184°
2026-04-27 18:37 38.35567 -0.97025 5536 ft 218 kts 155°
2026-04-27 18:37 38.34441 -0.95939 5511 ft 194 kts 123°
2026-04-27 18:37 38.33876 -0.94432 5444 ft 188 kts 108°
2026-04-27 18:37 38.33516 -0.92840 5307 ft 187 kts 103°
2026-04-27 18:38 38.33219 -0.91228 5152 ft 187 kts 102°
2026-04-27 18:38 38.32957 -0.89613 4988 ft 185 kts 101°
2026-04-27 18:38 38.32713 -0.88001 4786 ft 186 kts 99°
2026-04-27 18:38 38.32479 -0.86379 4544 ft 186 kts 100°
2026-04-27 18:39 38.32253 -0.84773 4323 ft 185 kts 99°
2026-04-27 18:39 38.32026 -0.83163 4099 ft 184 kts 99°
2026-04-27 18:39 38.31802 -0.81560 3858 ft 183 kts 100°
2026-04-27 18:39 38.31581 -0.79977 3633 ft 182 kts 99°
2026-04-27 18:40 38.31359 -0.78384 3406 ft 182 kts 99°
2026-04-27 18:40 38.31137 -0.76795 3162 ft 182 kts 100°
2026-04-27 18:40 38.30991 -0.75745 3001 ft 182 kts 100°
2026-04-27 18:40 38.30773 -0.74181 2784 ft 181 kts 99°
2026-04-27 18:41 38.30552 -0.72593 2528 ft 179 kts 99°
2026-04-27 18:41 38.30270 -0.70558 2223 ft 172 kts 99°
2026-04-27 18:41 38.30066 -0.69094 2000 ft 165 kts 98°
2026-04-27 18:41 38.29871 -0.67690 1791 ft 155 kts 99°
2026-04-27 18:42 38.29691 -0.66397 1574 ft 144 kts 99°
2026-04-27 18:42 38.29631 -0.65972 1499 ft 144 kts 99°
2026-04-27 18:42 38.29399 -0.64292 1258 ft 144 kts 98°
2026-04-27 18:42 38.29225 -0.63047 1068 ft 145 kts 99°
2026-04-27 18:43 38.29047 -0.61773 841 ft 144 kts 99°
2026-04-27 18:43 38.28875 -0.60534 679 ft 141 kts 99°
2026-04-27 18:43 38.28691 -0.59331 465 ft 137 kts 98°
2026-04-27 18:43 38.28526 -0.58088 314 ft 141 kts 97°
2026-04-27 18:44 38.28369 -0.56904 142 ft 128 kts 98°
2026-04-27 18:44 38.28237 -0.55968 107 ft 77 kts 99°
2026-04-27 18:44 38.28242 -0.55552 95 ft 26 kts 68°
2026-04-27 18:44 38.28299 -0.55360 92 ft 4 kts 73°
2026-04-27 18:45 38.28304 -0.55340 91 ft 5 kts 72°
2026-04-27 18:45 38.28328 -0.55267 90 ft 13 kts 61°
2026-04-27 18:45 38.28381 -0.55170 91 ft 11 kts 46°
2026-04-27 18:45 38.28430 -0.55167 94 ft 5 kts 310°
2026-04-27 18:46 38.28440 -0.55205 93 ft 4 kts 282°
2026-04-27 18:46 38.28447 -0.55238 95 ft 4 kts 292°
2026-04-27 18:46 38.28453 -0.55243 95 ft 0 kts 344°
2026-04-27 18:46 38.28474 -0.55243 95 ft 8 kts 358°
2026-04-27 18:47 38.28520 -0.55233 98 ft 0 kts 11°